Notices

What's New in latest Release from April 7th, 2021:

- Updated Glossary, including Speed of Maximum Gust, and Total Hourly Precipitation

- Updated national and regional climate services offices contacts and prices information

- Addition of station inventory lists for 1981-2010, 1971-2000, and 1961-1990 Normals.

If you haven't already, please take our survey and provide feedback about our website: https://eccc.sondage-survey.ca/f/LanguageSelection.aspx?s=442ca660-fcf1-47c0-95a9-59707d6fd709

Hourly Data Report for February 23, 2004

SHERBROOKE A
QUEBEC

45°26'00.000" N
71°41'00.000" W
241.40 m
7028124
71610
YSC

Download Data

Hourly Data (February 2004)
Hourly Data Report for February 23, 2004
TIME
LST
Temp Definition
°C
Dew Point Definition
°C
Rel Hum Definition
%
Precip. Amount Definition
mm

Wind Dir Definition
10's deg

Wind Spd Definition
km/h
Visibility Definition
km
Stn Press Definition
kPa
Hmdx Definition


Wind Chill Definition


Weather Definition


00:00 -4.1 -8.1 74   28 19 5.6 98.88   -10 Snow
01:00 -4.5 -8.6 73   28 17 15.0 98.93   -10 Snow
02:00 -5.1 -9.4 72   28 19 15.0 98.98   -12 Snow
03:00 -5.6 -10.1 71   28 17 15.0 99.03   -12 Snow
04:00 -6.1 -10.7 70   28 17 15.0 99.08   -12 Snow
05:00 -6.9 -11.5 70   28 17 15.0 99.12   -13 Snow
06:00 -7.4 -12.2 68   29 17 15.0 99.14   -14 Snow
07:00 -8.1 -12.7 69   29 20 15.0 99.19   -15  
08:00 -8.9 -13.9 67   29 22 19.3 99.24   -17 Snow Showers
09:00 -9.1 -14.3 66   28 19 19.3 99.25   -17 Snow Showers
10:00 -9.0 -14.7 63   27 17 24.1 99.26   -16 Mostly Cloudy
11:00 -8.2 -14.3 61   28 17 24.1 99.27   -15 Mainly Clear
12:00 -7.1 -13.7 59   29 19 24.1 99.21   -14 Mainly Clear
13:00 -6.0 -12.9 58   27 22 24.1 99.15   -13 Mainly Clear
14:00 -5.7 -13.0 56   30 22 24.1 99.11   -13 Mainly Clear
15:00 -5.7 -12.9 57   29 24 24.1 99.10   -13 Mainly Clear
16:00 -5.6 -13.4 54   30 17 24.1 99.11   -12 Mainly Clear
17:00 -6.9 -14.5 55   28 11 24.1 99.14   -12 Mainly Clear
18:00 -8.2 -15.0 58   27 9 15.0 99.17   -13  
19:00 -9.1 -15.0 62   24 6 15.0 99.21   -12  
20:00 -11.8 -16.3 69   27 6 15.0 99.21   -16  
21:00 -15.8 -19.6 73   20 6 15.0 99.21   -20  
22:00 -16.5 -20.3 72   19 6 15.0 99.20   -21  
23:00 -18.2 -22.1 71   9 4 15.0 99.14   -21  

Notes on Data Quality.

Legend

  • E = Estimated
  • M = Missing
  • NA = Not Available*
  • [empty] = Indicates an unobserved value
Date modified: